340  
ASUS43 KMKX 132121  
RWRWI  
 
WISCONSIN REGIONAL WEATHER ROUNDUP  
NATIONAL WEATHER SERVICE MILWAUKEE/SULLIVAN WI  
400 PM CDT MON JUL 13 2020  
 
NOTE: "FAIR" INDICATES FEW OR NO CLOUDS BELOW 12,000 FEET WITH NO  
SIGNIFICANT WEATHER AND/OR S TO VISIBILITY
.  
 
WIZ001-002-006>008-014>016-023>028-132200-  
NORTHWEST WISCONSIN  
 
CITY SKY/WX TMP DP RH WIND PRES REMARKS
 
SUPERIOR ARPT PTSUNNY 77 64 64 NE10 29.87S  
ASHLAND MOSUNNY 81 55 40 SE12G20 29.89F HX 81  
HAYWARD MOSUNNY 80 58 46 SE10G23 29.92F HX 80  
SIREN MOSUNNY 83 59 43 S14G22 29.87F HX 83  
CUMBERLAND MOSUNNY 79 59 50 S14 29.91F HX 80  
RICE LAKE MOSUNNY 83 62 49 SE14G20 29.92S HX 84  
CHETEK MOSUNNY 82 63 51 SE8G20 29.91F HX 83  
LADYSMITH MOSUNNY 81 59 47 S13 29.95F HX 81  
EAU CLAIRE SUNNY 85 58 39 S12G23 29.90F HX 84  
MENOMONIE MOSUNNY 80 60 51 SE14 29.90S HX 81  
NEW RICHMOND MOSUNNY 82 60 46 S8G17 29.88S HX 82  
OSCEOLA SUNNY 84 62 48 SE14 29.89F HX 84  

 
 
WIZ003>005-009-010-017-018-132200-  
NORTH CENTRAL WISCONSIN  
 
CITY SKY/WX TMP DP RH WIND PRES REMARKS
 
MANITOWISH WTR MOSUNNY 77 54 44 SE9 29.97S  
ARBOR VITAE MOSUNNY 80 55 42 S8G16 29.98S HX 80  
WOODRUFF MOSUNNY 80 55 42 S8G16 29.98S HX 80  
RHINELANDER MOSUNNY 80 51 36 S8 29.99F HX 80  
EAGLE RIVER PTSUNNY 78 51 38 S6 29.98S  
LAND O LAKES MOSUNNY 79 50 36 SE5 30.00S  
PHILLIPS MOSUNNY 77 59 53 S7 29.96S  
TOMAHAWK MOSUNNY 79 56 44 CALM 29.98F HX 80  
MEDFORD MOSUNNY 77 59 53 S8 29.98S  
MERRILL SUNNY 80 58 47 S5 29.98S HX 80  

 
 
WIZ029-030-035-036-043>047-132200-  
CENTRAL WISCONSIN  
 
CITY SKY/WX TMP DP RH WIND PRES REMARKS
 
WAUSAU SUNNY 79 56 45 SE8 29.96F HX 80  
MOSINEE PTSUNNY 77 57 50 SE3 29.99F  
MARSHFIELD MOSUNNY 78 59 51 SE7 29.97F  
STEVENS POINT PTSUNNY 76 57 51 SE6 29.98S  
WAUPACA SUNNY 84 58 40 E7 29.98S HX 84  
WAUTOMA MOSUNNY 82 58 43 S3 29.98S HX 82  
WISC RAPIDS MOSUNNY 82 57 42 CALM 29.97F HX 82  
CAMP DOUGLAS SUNNY 82 64 54 S8 29.96F HX 83  

 
 
WIZ011>013-019>022-031-037>040-048>050-132200-  
NORTHEAST WISCONSIN  
 
CITY SKY/WX TMP DP RH WIND PRES REMARKS
 
ANTIGO MOSUNNY 77 56 48 S8 30.00F  
SHAWANO SUNNY 82 56 41 SE6 29.98F HX 81  
OCONTO SUNNY 79 54 42 SE8 29.99F  
STURGEON BAY SUNNY 76 61 59 SE6 N/A  
GREEN BAY SUNNY 82 57 42 CALM 29.99S HX 82  
MANITOWOC SUNNY 72 60 66 SE9 30.02F  
APPLETON MOSUNNY 81 48 32 VRB3 29.98F HX 80  
CLINTONVILLE SUNNY 81 52 36 SE3 29.98F HX 80  
OSHKOSH SUNNY 80 57 45 E7 29.98F HX 80  

 
 
WIZ032>034-041-042-053>061-132200-  
SOUTHWEST WISCONSIN  
 
CITY SKY/WX TMP DP RH WIND PRES REMARKS
 
LA CROSSE MOSUNNY 87 61 41 S14G21 29.91F HX 87  
SPARTA MOSUNNY 83 62 49 SE12 29.94F HX 83  
VIROQUA MOSUNNY 81 67 62 S6 29.96F HX 83  
BOSCOBEL MOSUNNY 84 64 50 VRB3 29.95F HX 85  
PRAIRIE DU CHI SUNNY 84 61 46 SE9 29.93F HX 84  
PLATTEVILLE PTSUNNY 81 67 61 S9 29.98F HX 83  

 
 
WIZ056-057-062-063-064-067-068-132200-  
SOUTH CENTRAL WISCONSIN  
 
CITY SKY/WX TMP DP RH WIND PRES REMARKS
 
REEDSBURG PTSUNNY 83 64 52 S8 29.96F HX 84  
BARABOO/DELLS MOSUNNY 80 58 46 SE6 29.97F HX 81  
LONE ROCK SUNNY 82 64 54 SE6 29.95F HX 83  
MINERAL POINT MOSUNNY 82 61 47 S8 29.98F HX 83  
MADISON PTSUNNY 82 62 50 S9 29.98S HX 83  
MIDDLETON MOSUNNY 80 60 50 SE6 30.00R HX 81  
WATERTOWN MOSUNNY 82 59 46 CALM 29.99S HX 82  
MONROE PTSUNNY 78 62 57 E5 29.99S  
JANESVILLE MOSUNNY 81 63 54 SE8 29.99F HX 82  

 
 
WIZ051-052-058>065-066-070>072-132200-  
SOUTHEAST WISCONSIN  
 
CITY SKY/WX TMP DP RH WIND PRES REMARKS
 
MILWAUKEE MOSUNNY 75 64 68 E13 30.01S  
WAUKESHA PTSUNNY 75 63 64 E12 30.01S  
MILWAUKEE/TIMM SUNNY 75 59 57 E9 30.02S  
RACINE MOSUNNY 75 65 70 SE9 30.03S  
KENOSHA PTSUNNY 75 64 68 SE10 30.02R  
FOND DU LAC PTSUNNY 82 59 45 VRB6 29.99F HX 82  
SHEBOYGAN SUNNY 77 61 57 SE6 30.01F  
WEST BEND SUNNY 75 63 64 E9 30.01S  
JUNEAU SUNNY 79 58 47 CALM 30.00S HX 80  

 
 
LSZ147-162-132200-  
LAKE SUPERIOR  
 
STATION/POSITION TIME TEMP WIND PRES WAVE
 
AIR SEA DIR/SP/G HT/PER  
(UTC) (F) (DEG/KT/KT) (MB) (FT/S)  
DEVILS ISLAND 2100 68 90/ 13/ 14 1012.9F  
PORT WING 2040 82 140/ 5/ 12 1011.9F  
SAXON HARBOR 2040 74 40/ 13/ 16 1012.2F  

 
 
LMZ867-665-643>646-132200-  
LAKE MICHIGAN  
 
STATION/POSITION TIME TEMP WIND PRES WAVE
 
AIR SEA DIR/SP/G HT/PER  
(UTC) (F) (DEG/KT/KT) (MB) (FT/S)  
NORTHPORT PIER 2040 72 120/ 11/ 14 1015.6F  
SHEBOYGAN LAKESH 2100 69 150/ 8/ 9 N/A  
PORT WASHINGTON 2030 72 140/ 10/ 11 1017.3F  
ATWATER BUOY 2100 71 72 140/ 10/ 12 1016.7 1/ 2  
MILWAUKEE LAKESH 2100 71 120/ 10/ 11 N/A  
KENOSHA LAKESH 2100 74 140/ 9/ 12 1016.3  

 
 
TC - TEMPERATURE IN CELSIUS  
VSB - VISIBILITY IN STATUTE MILES  
WCI - WIND CHILL INDEX  
HX - HEAT INDEX  
 
 
 
CLICK HERE TO GO TO PREVIOUS BULLETINS.

The Nexlab WI Page Main Text Page